Location: Cannifist
(18.2333°N, 63.0167°W)
Time: 09:50:20
(UTC+00:00)

YAOGAN 1 - Pass Details

Date: 27 February 2020
Orbit: 618 x 621 km, 97.9° (Epoch: 07 April)

Event Time Altitude Azimuth Distance (km) Brightness Sun altitude
Rises 22:28:25 0° 147° (SSE) 2,883 5.7 -3.4°
Reaches altitude 10° 22:30:48 10° 136° (SE) 1,979 4.8 -4.0°
Maximum altitude 22:34:34 30° 75° (ENE) 1,114 3.4 -4.9°
Drops below altitude 10° 22:38:20 10° 14° (NNE) 1,984 5.0 -5.8°
Sets 22:40:43 0° 4° (N) 2,891 5.9 -6.3°
